When you browse on this site, cookies collect data to enhance your experience and personalize the content and advertising you see.
Visit our Privacy Policy to learn more. By continuing to use the site, you agree to this use of cookies and data.
  • In Hungary
  • List of Countries
  • For 7 days
  • Water Temperature
  • Weather Map
  • News
  • Weather Widgets
  • user-avatar
    Login

    Hourly Weather Novoaleksandrovskiy

    Today, 26 February, Wednesday

    Time Temperature Precipitation Wind Pressure Humidity
    00:00 -1°C° 0 mm 3 mps 753 mmHg 84%
    01:00 -1°C° 0 mm 3 mps 753 mmHg 83%
    02:00 -1°C° 0 mm 3 mps 753 mmHg 83%
    03:00 -1°C° 0 mm 3 mps 752 mmHg 83%
    04:00 -1°C° 0 mm 3 mps 752 mmHg 84%
    05:00 -2°C° 0 mm 4 mps 752 mmHg 84%
    06:00 -2°C° 0 mm 4 mps 752 mmHg 85%
    07:00 -1°C° 0 mm 5 mps 752 mmHg 86%
    08:00 0°C° 0 mm 5 mps 752 mmHg 87%
    09:00 +1°C° 0 mm 6 mps 751 mmHg 87%
    10:00 +2°C° 0 mm 7 mps 751 mmHg 84%
    11:00 +3°C° 0 mm 7 mps 751 mmHg 80%
    12:00 +4°C° 0 mm 7 mps 750 mmHg 76%
    13:00 +4°C° 0 mm 7 mps 750 mmHg 75%
    14:00 +5°C° 0 mm 7 mps 750 mmHg 73%
    15:00 +5°C° 0 mm 7 mps 749 mmHg 72%
    16:00 +5°C° 0 mm 7 mps 749 mmHg 73%
    17:00 +4°C° 0 mm 6 mps 749 mmHg 74%
    18:00 +3°C° 0 mm 6 mps 749 mmHg 75%
    19:00 +3°C° 0 mm 6 mps 749 mmHg 76%
    20:00 +3°C° 0 mm 6 mps 749 mmHg 77%
    21:00 +2°C° 0 mm 5 mps 749 mmHg 78%
    22:00 +2°C° 0 mm 5 mps 749 mmHg 79%
    23:00 +2°C° 0 mm 5 mps 748 mmHg 80%

    Tomorrow, 27 February, Thursday

    Time Temperature Precipitation Wind Pressure Humidity
    00:00 +1°C° 0 mm 5 mps 748 mmHg 81%
    01:00 +1°C° 0 mm 5 mps 748 mmHg 77%
    02:00 +1°C° 0 mm 5 mps 748 mmHg 74%
    03:00 +1°C° 0 mm 5 mps 748 mmHg 70%
    04:00 +1°C° 0 mm 5 mps 748 mmHg 70%
    05:00 +1°C° 0 mm 5 mps 747 mmHg 69%
    06:00 +1°C° 0 mm 5 mps 747 mmHg 69%
    07:00 +2°C° 0 mm 6 mps 747 mmHg 70%
    08:00 +2°C° 0 mm 6 mps 747 mmHg 71%
    09:00 +3°C° 0 mm 6 mps 747 mmHg 73%
    10:00 +5°C° 0 mm 7 mps 747 mmHg 69%
    11:00 +8°C° 0 mm 7 mps 746 mmHg 65%
    12:00 +10°C° 0 mm 8 mps 746 mmHg 61%
    13:00 +10°C° 0 mm 8 mps 746 mmHg 60%
    14:00 +10°C° 0 mm 8 mps 746 mmHg 59%
    15:00 +11°C° 0 mm 7 mps 745 mmHg 58%
    16:00 +10°C° 0 mm 7 mps 745 mmHg 64%
    17:00 +9°C° 0 mm 6 mps 745 mmHg 70%
    18:00 +8°C° 0 mm 5 mps 745 mmHg 76%
    19:00 +8°C° 0 mm 5 mps 745 mmHg 80%
    20:00 +7°C° 0 mm 5 mps 745 mmHg 83%
    21:00 +7°C° 0 mm 5 mps 745 mmHg 87%
    22:00 +7°C° 0 mm 5 mps 745 mmHg 87%
    23:00 +7°C° 0 mm 5 mps 745 mmHg 88%

    Day after tomorrow, 28 February, Friday

    Time Temperature Precipitation Wind Pressure Humidity
    00:00 +7°C° 0 mm 5 mps 745 mmHg 89%
    01:00 +7°C° 0 mm 5 mps 745 mmHg 89%
    02:00 +6°C° 0 mm 5 mps 745 mmHg 89%
    03:00 +6°C° 0 mm 5 mps 744 mmHg 89%
    04:00 +6°C° 0 mm 5 mps 744 mmHg 89%
    05:00 +6°C° 0 mm 5 mps 743 mmHg 89%
    06:00 +5°C° 0 mm 4 mps 743 mmHg 88%
    07:00 +5°C° 0 mm 6 mps 743 mmHg 84%
    08:00 +5°C° 0 mm 7 mps 742 mmHg 79%
    09:00 +6°C° 0 mm 8 mps 742 mmHg 74%
    10:00 +7°C° 0.2 mm 9 mps 742 mmHg 71%
    11:00 +7°C° 0.2 mm 9 mps 742 mmHg 67%
    12:00 +8°C° 0.2 mm 10 mps 742 mmHg 64%
    13:00 +6°C° 0 mm 10 mps 743 mmHg 68%
    14:00 +5°C° 0 mm 10 mps 744 mmHg 72%
    15:00 +3°C° 0 mm 10 mps 744 mmHg 75%
    16:00 +3°C° 0 mm 9 mps 745 mmHg 75%
    17:00 +2°C° 0 mm 9 mps 746 mmHg 74%
    18:00 +2°C° 0 mm 8 mps 748 mmHg 74%
    19:00 +2°C° 0 mm 6 mps 749 mmHg 74%
    20:00 +2°C° 0 mm 5 mps 749 mmHg 74%
    21:00 +1°C° 0 mm 4 mps 750 mmHg 74%
    22:00 +1°C° 0 mm 4 mps 751 mmHg 76%
    23:00 +1°C° 0 mm 3 mps 751 mmHg 78%

    29 February, Saturday

    Time Temperature Precipitation Wind Pressure Humidity
    00:00 0°C° 0 mm 3 mps 751 mmHg 80%
    01:00 0°C° 0 mm 3 mps 752 mmHg 80%
    02:00 +1°C° 0 mm 2 mps 752 mmHg 80%
    03:00 +1°C° 0 mm 2 mps 752 mmHg 80%
    04:00 +1°C° 0 mm 2 mps 752 mmHg 79%
    05:00 +1°C° 0 mm 2 mps 752 mmHg 78%
    06:00 +1°C° 0 mm 2 mps 751 mmHg 77%
    07:00 +1°C° 0 mm 2 mps 751 mmHg 75%
    08:00 +2°C° 0 mm 2 mps 751 mmHg 73%
    09:00 +3°C° 0 mm 2 mps 751 mmHg 70%
    10:00 +3°C° 0 mm 3 mps 751 mmHg 67%
    11:00 +4°C° 0 mm 3 mps 751 mmHg 63%
    12:00 +5°C° 0 mm 3 mps 751 mmHg 60%
    13:00 +5°C° 0 mm 3 mps 751 mmHg 57%
    14:00 +7°C° 0 mm 3 mps 750 mmHg 55%
    15:00 +7°C° 0 mm 3 mps 750 mmHg 53%
    16:00 +7°C° 0 mm 3 mps 750 mmHg 59%
    17:00 +5°C° 0 mm 3 mps 750 mmHg 65%
    18:00 +4°C° 0 mm 3 mps 750 mmHg 71%
    19:00 +4°C° 0 mm 3 mps 750 mmHg 74%
    20:00 +3°C° 0 mm 4 mps 750 mmHg 77%
    21:00 +3°C° 0 mm 4 mps 750 mmHg 79%
    22:00 +2°C° 0.7 mm 5 mps 750 mmHg 84%
    23:00 +2°C° 0.7 mm 5 mps 750 mmHg 89%

    1 March, Sunday

    Time Temperature Precipitation Wind Pressure Humidity
    00:00 +2°C° 0.7 mm 6 mps 750 mmHg 94%
    01:00 +2°C° 0.5 mm 5 mps 750 mmHg 94%
    02:00 +2°C° 0.5 mm 5 mps 750 mmHg 95%
    03:00 +3°C° 0.5 mm 4 mps 750 mmHg 95%
    04:00 +1°C° 0.3 mm 4 mps 750 mmHg 95%
    05:00 +1°C° 0.3 mm 4 mps 750 mmHg 96%
    06:00 +2°C° 0.3 mm 3 mps 751 mmHg 96%
    07:00 +2°C° 0.4 mm 3 mps 751 mmHg 96%
    08:00 +2°C° 0.4 mm 3 mps 752 mmHg 96%
    09:00 +3°C° 0.4 mm 2 mps 752 mmHg 95%
    10:00 +3°C° 0.2 mm 2 mps 753 mmHg 93%
    11:00 +4°C° 0.2 mm 2 mps 753 mmHg 91%
    12:00 +5°C° 0.2 mm 1 mps 754 mmHg 89%
    13:00 +5°C° 0.1 mm 1 mps 754 mmHg 88%
    14:00 +5°C° 0.1 mm 1 mps 755 mmHg 87%
    15:00 +6°C° 0.1 mm 1 mps 755 mmHg 85%
    16:00 +5°C° 0.1 mm 1 mps 755 mmHg 87%
    17:00 +4°C° 0.1 mm 2 mps 756 mmHg 88%
    18:00 +4°C° 0.1 mm 2 mps 756 mmHg 89%
    19:00 +4°C° 0.1 mm 2 mps 757 mmHg 90%
    20:00 +3°C° 0.1 mm 2 mps 757 mmHg 90%
    21:00 +3°C° 0.1 mm 2 mps 758 mmHg 91%
    22:00 +2°C° 0 mm 2 mps 758 mmHg 91%
    23:00 +2°C° 0 mm 2 mps 759 mmHg 90%

    2 March, Monday

    Time Temperature Precipitation Wind Pressure Humidity
    00:00 +2°C° 0 mm 2 mps 759 mmHg 90%
    01:00 +1°C° 0 mm 2 mps 759 mmHg 90%
    02:00 +1°C° 0 mm 2 mps 759 mmHg 90%
    03:00 +1°C° 0 mm 2 mps 759 mmHg 90%
    04:00 +1°C° 0 mm 2 mps 759 mmHg 91%
    05:00 +1°C° 0 mm 2 mps 760 mmHg 92%
    06:00 +1°C° 0 mm 2 mps 760 mmHg 92%
    07:00 +1°C° 0 mm 2 mps 760 mmHg 89%
    08:00 +1°C° 0 mm 3 mps 760 mmHg 86%
    09:00 +2°C° 0 mm 3 mps 760 mmHg 83%
    10:00 +3°C° 0 mm 3 mps 760 mmHg 77%
    11:00 +4°C° 0 mm 3 mps 760 mmHg 72%
    12:00 +7°C° 0 mm 3 mps 760 mmHg 66%
    13:00 +6°C° 0 mm 4 mps 760 mmHg 64%
    14:00 +6°C° 0 mm 4 mps 760 mmHg 62%
    15:00 +6°C° 0 mm 4 mps 759 mmHg 60%
    16:00 +6°C° 0 mm 4 mps 759 mmHg 62%
    17:00 +5°C° 0 mm 4 mps 759 mmHg 64%
    18:00 +5°C° 0 mm 3 mps 759 mmHg 66%
    19:00 +5°C° 0 mm 3 mps 759 mmHg 68%
    20:00 +4°C° 0 mm 3 mps 759 mmHg 70%
    21:00 +4°C° 0 mm 3 mps 759 mmHg 71%
    22:00 +3°C° 0 mm 3 mps 759 mmHg 74%
    23:00 +3°C° 0 mm 3 mps 760 mmHg 77%
    Show more